[[{"header":{"parameterUnit":"m.s-1","parameterCategory":1,"la1":30.2991,"la2":30.254,"lo1":-89.0895,"lo2":-89.0444,"dx":0.0017,"dy":0.0017,"nx":28,"ny":28,"refTime":"2022-11-16T03:00:00:Z","depth":0,"parameterNumber":2,"parameterNumberName":"U-component_of_WINDS"},"data":[0,0,0,0,0,0,0,0,0,0,0,0,0,0,0,0,0,0,0,0,0,0,0,0,0,0,0,0,0,0,0,0,0,0,0,0,0,0,0,0,0,0,0,0,0,0,0,0,0,0,0,0,0,0,0,0,0,0,-0.5981,-0.5982,0,-0.6027,-0.6028,-0.6028,-0.598,-0.5978,-0.5976,-0.5975,-0.6024,-0.6027,-0.603,0,0,0,0,0,0,0,0,0,0,0,0,0,-0.5852,-0.5855,-0.5981,-0.5982,-0.5982,-0.6027,-0.6028,-0.6029,-0.5981,-0.5978,-0.5976,-0.5974,-0.6023,-0.6027,-0.603,0,0,0,0,0,0,0,0,0,0,0,0,0,-0.5904,-0.5856,-0.5981,-0.5964,-0.5963,-0.6027,-0.6028,-0.6029,-0.5981,-0.5978,-0.5975,-0.5973,-0.6022,-0.6026,-0.6031,-0.6115,0,0,-0.6045,-0.6047,0,0,0,0,0,0,0,0,-0.5901,-0.5909,-0.5966,-0.5965,-0.5964,-0.5995,-0.6,-0.6058,-0.5982,-0.5974,-0.5975,-0.5971,-0.6017,-0.6022,-0.6037,-0.6118,-0.612,-0.6045,-0.6048,-0.605,-0.6051,0,0,0,0,0,0,0,-0.5898,-0.5907,-0.6,-0.5967,-0.5966,-0.5954,-0.5958,-0.6011,-0.6011,-0.5975,-0.5971,-0.5977,-0.6016,-0.6032,-0.6037,-0.6121,-0.6045,-0.6049,-0.6052,-0.6054,-0.6272,-0.6275,0,0,0,0,0,0,-0.5896,-0.5904,-0.5998,-0.6001,-0.5925,-0.5958,-0.5963,-0.5988,-0.601,-0.6011,-0.598,-0.5975,-0.6026,-0.6032,-0.6039,-0.6139,-0.605,-0.6054,-0.6057,-0.6269,-0.6273,-0.6276,0,0,0,0,0,0,-0.5893,-0.5905,-0.5996,-0.5952,-0.5962,-0.5964,-0.5992,-0.599,-0.6007,-0.6014,-0.6014,-0.5996,-0.6024,-0.6032,-0.6096,-0.614,-0.6056,-0.6061,-0.6266,-0.627,-0.6275,-0.6341,0,0,0,0,0,0,-0.589,-0.5904,-0.5936,-0.5953,-0.5965,-0.6053,-0.5995,-0.5993,-0.6015,-0.6009,-0.603,-0.603,-0.6022,-0.609,-0.6101,-0.6145,-0.6064,-0.6262,-0.6268,-0.6273,-0.6335,-0.6347,-0.6358,0,0,0,0,0,-0.5885,-0.5954,-0.5938,-0.595,-0.6005,-0.6056,-0.6063,-0.6052,-0.6018,-0.6051,-0.6055,-0.603,-0.6133,-0.6097,-0.6109,-0.6155,-0.6259,-0.6266,-0.6273,-0.633,-0.6345,-0.6357,0,0,0,0,0,0,-0.5944,-0.5956,-0.5939,-0.6014,-0.6034,-0.6047,-0.6088,-0.6068,-0.6098,-0.6092,-0.6077,-0.6082,-0.615,-0.6159,-0.6118,-0.6238,-0.6191,-0.62,-0.623,-0.6244,-0.6255,-0.6253,-0.6068,0,0,0,0,0,-0.5965,-0.6005,-0.6013,-0.6079,-0.609,-0.6087,-0.6109,-0.6098,-0.6119,-0.6127,-0.6136,-0.6157,-0.6194,-0.6219,-0.6254,-0.6335,-0.6339,-0.6373,-0.6384,-0.6393,-0.6402,-0.6445,-0.6461,-0.6299,-0.6299,-0.6299,0,0,-0.6011,-0.6022,-0.6048,-0.6091,-0.6105,-0.6147,-0.6095,-0.6142,-0.6172,-0.6135,-0.6196,-0.6202,-0.6225,-0.6298,-0.633,-0.6307,-0.6447,-0.6402,-0.641,-0.6414,-0.6454,-0.6469,-0.6483,-0.6304,-0.6303,-0.6302,0,0,-0.6115,-0.6127,-0.6183,-0.6198,-0.6219,-0.6217,-0.623,-0.6246,-0.6249,-0.631,-0.6282,-0.6318,-0.6383,-0.64,-0.6417,-0.6525,-0.6503,-0.6537,-0.6597,-0.6639,-0.6652,-0.6663,-0.6702,-0.6716,-0.6545,-0.6545,-0.6545,0,-0.6168,-0.623,-0.6215,-0.6263,-0.6283,-0.6249,-0.6305,-0.6321,-0.6353,-0.6367,-0.634,-0.642,-0.6433,-0.6509,-0.6535,-0.6549,-0.6564,-0.6535,-0.6651,-0.6662,-0.6673,-0.671,-0.6724,-0.6549,-0.6549,-0.6548,-0.6548,0,-0.6295,-0.6338,-0.6381,-0.6412,-0.6436,-0.6488,-0.6481,-0.6507,-0.6494,-0.6494,-0.6556,-0.6569,-0.6606,-0.6623,-0.6611,-0.6697,-0.6682,-0.6653,-0.6606,-0.6692,-0.6727,-0.6741,-0.6555,-0.6554,-0.6552,-0.6551,0,0,-0.644,-0.646,-0.6476,-0.6489,-0.651,-0.6543,-0.6593,-0.6628,-0.6651,-0.6673,-0.6716,-0.677,-0.6743,-0.6762,-0.6751,-0.6788,-0.6873,-0.6755,-0.6755,-0.6777,-0.6969,-0.6991,-0.7008,-0.6857,-0.686,-0.6862,-0.6967,0,-0.6545,-0.6632,-0.6619,-0.6703,-0.6742,-0.6709,-0.6753,-0.677,-0.6771,-0.6805,-0.6806,-0.6845,-0.6806,-0.6818,-0.6852,-0.6856,-0.6912,-0.6847,-0.6897,-0.6899,-0.6894,-0.7026,-0.705,-0.7149,-0.6981,-0.6983,-0.6985,0,-0.6679,-0.6706,-0.6794,-0.6807,-0.6823,-0.6863,-0.6893,-0.6925,-0.6944,-0.6942,-0.6963,-0.6945,-0.6995,-0.6945,-0.7014,-0.6971,-0.699,-0.6994,-0.6997,-0.7003,-0.6948,-0.7036,-0.718,-0.7195,-0.7006,-0.7004,-0.7002,0,-0.6777,-0.6835,-0.6895,-0.6907,-0.6924,-0.6952,-0.6961,-0.6976,-0.6998,-0.7024,-0.7037,-0.7069,-0.7087,-0.7112,-0.7103,-0.7068,-0.7174,-0.7123,-0.7174,-0.7174,-0.7199,-0.7198,-0.7349,-0.721,-0.7209,-0.7209,-0.7209,0,-0.6897,-0.6952,-0.6939,-0.6976,-0.7036,-0.702,-0.7081,-0.7085,-0.7099,-0.7136,-0.7109,-0.7144,-0.7129,-0.7164,-0.7157,-0.7215,-0.7223,-0.7223,-0.7221,-0.7226,-0.7226,-0.724,-0.7233,-0.7213,-0.7212,-0.7211,-0.7211,0,-0.7017,-0.701,-0.7073,-0.7083,-0.7087,-0.7131,-0.714,-0.7174,-0.7172,-0.722,-0.723,-0.7227,-0.7266,-0.7258,-0.7302,-0.7297,-0.737,-0.7358,-0.7364,-0.7361,-0.7413,-0.7408,-0.7579,-0.76,-0.7446,-0.7447,-0.7448,0,-0.7094,-0.7136,-0.715,-0.7172,-0.7183,-0.722,-0.7241,-0.7226,-0.7249,-0.7272,-0.7304,-0.734,-0.7369,-0.7432,-0.7434,-0.7467,-0.7457,-0.7514,-0.7462,-0.7466,-0.7459,-0.7457,-0.7461,-0.7525,-0.7527,-0.7528,-0.753,0,-0.7233,-0.7227,-0.7258,-0.7289,-0.7314,-0.7337,-0.7358,-0.7378,-0.7364,-0.7392,-0.7431,-0.7453,-0.7496,-0.7532,-0.7562,-0.7571,-0.7549,-0.7546,-0.7559,-0.7566,-0.7568,-0.7568,-0.7393,-0.7542,-0.7541,-0.754,-0.754,-0.7539,-0.7335,-0.737,-0.7385,-0.7421,-0.7434,-0.7453,-0.7486,-0.7487,-0.752,-0.7553,-0.7542,-0.7587,-0.7603,-0.764,-0.7652,-0.7686,-0.7665,-0.7685,-0.769,-0.7695,-0.7702,-0.7561,-0.7692,-0.7691,-0.7691,-0.7691,-0.769,0,-0.7472,-0.748,-0.7513,-0.7542,-0.757,-0.7544,-0.7565,-0.759,-0.763,-0.7646,-0.7674,-0.7719,-0.7753,-0.7757,-0.7789,-0.7816,-0.7807,-0.7826,-0.7824,-0.7826,-0.7719,-0.7704,-0.7833,-0.7833,-0.7833,-0.7833,-0.7833,-0.7833,-0.7547,-0.7606,-0.7601,-0.7665,-0.7672,-0.7715,-0.773,-0.7747,-0.776,-0.7811,-0.7839,-0.7841,-0.7852,-0.7885,-0.7915,-0.7915,-0.7929,-0.7952,-0.7948,-0.7848,-0.7834,-0.7821,-0.7807,-0.7955,-0.7955,-0.8053,-0.8054,-0.8055]},{"header":{"parameterUnit":"m.s-1","parameterCategory":1,"la1":30.2991,"la2":30.254,"lo1":-89.0895,"lo2":-89.0444,"dx":0.0017,"dy":0.0017,"nx":28,"ny":28,"refTime":"2022-11-16T03:00:00:Z","depth":0,"parameterNumber":3,"parameterNumberName":"V-component_of_WINDS"},"data":[0,0,0,0,0,0,0,0,0,0,0,0,0,0,0,0,0,0,0,0,0,0,0,0,0,0,0,0,0,0,0,0,0,0,0,0,0,0,0,0,0,0,0,0,0,0,0,0,0,0,0,0,0,0,0,0,0,0,-6.2618,-6.2619,0,-6.2749,-6.275,-6.2752,-6.2649,-6.2645,-6.2641,-6.2637,-6.2765,-6.2772,-6.278,0,0,0,0,0,0,0,0,0,0,0,0,0,-6.2272,-6.2279,-6.2618,-6.2619,-6.2621,-6.2749,-6.275,-6.2752,-6.265,-6.2645,-6.264,-6.2635,-6.2763,-6.2771,-6.278,0,0,0,0,0,0,0,0,0,0,0,0,0,-6.2415,-6.2281,-6.2617,-6.2586,-6.2584,-6.2748,-6.2751,-6.2753,-6.2651,-6.2645,-6.2638,-6.2632,-6.276,-6.2771,-6.2782,-6.2982,0,0,-6.2816,-6.2821,0,0,0,0,0,0,0,0,-6.2407,-6.2427,-6.2589,-6.2588,-6.2587,-6.2676,-6.2676,-6.283,-6.2653,-6.2626,-6.2636,-6.2629,-6.274,-6.2753,-6.2792,-6.2988,-6.2994,-6.2817,-6.2824,-6.2829,-6.2832,0,0,0,0,0,0,0,-6.2397,-6.2421,-6.2669,-6.2591,-6.259,-6.2563,-6.2576,-6.2704,-6.2718,-6.2628,-6.262,-6.2638,-6.2739,-6.2781,-6.2794,-6.2996,-6.2817,-6.2827,-6.2834,-6.2838,-6.3361,-6.3368,0,0,0,0,0,0,-6.2391,-6.2414,-6.2665,-6.2673,-6.2479,-6.2574,-6.2589,-6.2654,-6.2716,-6.272,-6.2643,-6.2632,-6.2765,-6.2781,-6.2798,-6.3036,-6.2829,-6.2839,-6.2846,-6.3354,-6.3363,-6.337,0,0,0,0,0,0,-6.2384,-6.2415,-6.266,-6.2542,-6.2571,-6.2587,-6.2661,-6.266,-6.2703,-6.2728,-6.2729,-6.2685,-6.2761,-6.2782,-6.2937,-6.3039,-6.2844,-6.2854,-6.3346,-6.3357,-6.3366,-6.3514,0,0,0,0,0,0,-6.2375,-6.2413,-6.2491,-6.2544,-6.2578,-6.28,-6.2668,-6.2667,-6.2723,-6.271,-6.2767,-6.2771,-6.2757,-6.2921,-6.2948,-6.3051,-6.2863,-6.3336,-6.335,-6.3363,-6.35,-6.3528,-6.3553,0,0,0,0,0,-6.2363,-6.2526,-6.2495,-6.2526,-6.2676,-6.2806,-6.2824,-6.2807,-6.2732,-6.2809,-6.2825,-6.2769,-6.3023,-6.2938,-6.2968,-6.3075,-6.333,-6.3346,-6.3362,-6.3488,-6.3523,-6.3552,0,0,0,0,0,0,-6.2483,-6.2533,-6.2499,-6.2685,-6.2742,-6.2788,-6.2886,-6.2845,-6.2923,-6.2907,-6.2881,-6.2894,-6.3057,-6.3081,-6.2985,-6.3271,-6.3164,-6.3187,-6.325,-6.3283,-6.3309,-6.3299,-6.2873,0,0,0,0,0,-6.2531,-6.2635,-6.2672,-6.2832,-6.2863,-6.287,-6.2925,-6.2907,-6.2964,-6.2987,-6.3015,-6.3071,-6.3162,-6.3224,-6.331,-6.3503,-6.3512,-6.3591,-6.3617,-6.3639,-6.3659,-6.376,-6.3795,-6.3423,-6.3423,-6.3423,0,0,-6.2632,-6.2672,-6.2738,-6.2858,-6.2899,-6.3005,-6.2891,-6.3007,-6.3084,-6.3004,-6.3153,-6.3175,-6.3235,-6.3409,-6.3487,-6.3434,-6.3763,-6.3659,-6.3676,-6.3684,-6.378,-6.3815,-6.3847,-6.3434,-6.3432,-6.343,0,0,-6.2869,-6.2911,-6.3048,-6.3093,-6.3158,-6.3162,-6.3195,-6.3247,-6.3259,-6.3408,-6.335,-6.344,-6.36,-6.3645,-6.3688,-6.3941,-6.3891,-6.397,-6.4107,-6.4206,-6.4235,-6.4261,-6.435,-6.4382,-6.399,-6.399,-6.399,0,-6.2985,-6.3144,-6.3124,-6.3245,-6.3298,-6.3232,-6.337,-6.3413,-6.3503,-6.354,-6.348,-6.3678,-6.3714,-6.3897,-6.3959,-6.3997,-6.4032,-6.3963,-6.4233,-6.4259,-6.4283,-6.4367,-6.44,-6.3999,-6.3998,-6.3997,-6.3996,0,-6.3283,-6.3393,-6.3496,-6.3586,-6.3651,-6.378,-6.3777,-6.3844,-6.382,-6.3829,-6.398,-6.402,-6.4113,-6.4155,-6.4132,-6.4335,-6.43,-6.4237,-6.4129,-6.4327,-6.4406,-6.4438,-6.4012,-6.4009,-6.4006,-6.4004,0,0,-6.36,-6.3677,-6.3715,-6.3754,-6.3821,-6.3905,-6.4029,-6.4122,-6.4179,-6.4242,-6.4345,-6.4481,-6.4423,-6.4473,-6.4454,-6.4542,-6.4737,-6.4468,-6.4469,-6.4515,-6.496,-6.5006,-6.5044,-6.4705,-6.4711,-6.4716,-6.4955,0,-6.3839,-6.4059,-6.4044,-6.4249,-6.4349,-6.4288,-6.4395,-6.4447,-6.4458,-6.4543,-6.4554,-6.4651,-6.4568,-6.4597,-6.4681,-6.4696,-6.4826,-6.4678,-6.4797,-6.4802,-6.4784,-6.5086,-6.5135,-6.5359,-6.4985,-6.4991,-6.4994,0,-6.4148,-6.4224,-6.444,-6.449,-6.4532,-6.463,-6.4712,-6.4795,-6.4851,-6.4852,-6.4908,-6.4874,-6.4997,-6.4886,-6.5054,-6.4954,-6.5001,-6.5015,-6.5024,-6.5033,-6.491,-6.5102,-6.543,-6.5464,-6.5043,-6.5039,-6.5035,0,-6.4356,-6.4512,-6.4661,-6.4697,-6.476,-6.4829,-6.4858,-6.4908,-6.4964,-6.5035,-6.507,-6.5155,-6.5201,-6.5265,-6.5254,-6.5175,-6.5424,-6.5313,-6.5427,-6.5428,-6.5482,-6.5479,-6.5821,-6.5515,-6.5514,-6.5513,-6.5513,0,-6.4625,-6.4759,-6.4755,-6.4847,-6.4995,-6.4975,-6.5121,-6.5141,-6.5186,-6.5278,-6.5229,-6.5316,-6.5297,-6.5383,-6.5374,-6.5513,-6.5535,-6.5538,-6.5534,-6.5542,-6.5541,-6.5572,-6.5556,-6.5522,-6.552,-6.5519,-6.5517,0,-6.4882,-6.4886,-6.5044,-6.509,-6.5105,-6.5212,-6.525,-6.5335,-6.5342,-6.546,-6.5486,-6.5496,-6.5595,-6.559,-6.5701,-6.5695,-6.5866,-6.5845,-6.5848,-6.5843,-6.5957,-6.5946,-6.6331,-6.6379,-6.6042,-6.6046,-6.6048,0,-6.5053,-6.5155,-6.5213,-6.5272,-6.5306,-6.5403,-6.5459,-6.5443,-6.5504,-6.5574,-6.5651,-6.5745,-6.582,-6.598,-6.5996,-6.608,-6.6059,-6.6188,-6.6071,-6.6076,-6.6059,-6.6053,-6.6062,-6.6211,-6.6215,-6.6218,-6.622,0,-6.5356,-6.5352,-6.5437,-6.5524,-6.5593,-6.566,-6.572,-6.5771,-6.576,-6.5831,-6.5932,-6.599,-6.6104,-6.6198,-6.6278,-6.6305,-6.6261,-6.6257,-6.6287,-6.6296,-6.6294,-6.6295,-6.591,-6.6248,-6.6245,-6.6243,-6.6242,-6.6241,-6.5574,-6.5661,-6.5716,-6.5812,-6.5856,-6.5913,-6.5995,-6.6013,-6.6098,-6.619,-6.6175,-6.6288,-6.6338,-6.6442,-6.6476,-6.6562,-6.6516,-6.6561,-6.6572,-6.6583,-6.6595,-6.6281,-6.6577,-6.6576,-6.6575,-6.6575,-6.6574,0,-6.5873,-6.5905,-6.5993,-6.608,-6.6155,-6.6109,-6.6173,-6.6238,-6.6339,-6.6391,-6.6466,-6.6581,-6.6671,-6.6694,-6.678,-6.6844,-6.6826,-6.6867,-6.6862,-6.6868,-6.6633,-6.6597,-6.6881,-6.6881,-6.688,-6.688,-6.688,-6.688,-6.6037,-6.6182,-6.6185,-6.6349,-6.6379,-6.6491,-6.6532,-6.6583,-6.6624,-6.6756,-6.6832,-6.6846,-6.6886,-6.6974,-6.7054,-6.7058,-6.7091,-6.7141,-6.7136,-6.6916,-6.6885,-6.6856,-6.6822,-6.7148,-6.7149,-6.7365,-6.7367,-6.7368]}]]